| time (UTC) | temp F | wind direction | speed knots | gust knots | rain 1hr in | rain 24hr in | rain mn in | humidity % | barometer mb |
| 20260507151550 | 56 | 29 | 0.0 | 4.3 | 0.00 | 0.00 | 0.00 | 75 | 1014.9 |
| 20260507150050 | 56 | 230 | 0.9 | 3.5 | 0.00 | 0.00 | 0.00 | 75 | 1014.9 |
| 20260507144601 | 56 | 228 | 0.0 | 3.5 | 0.00 | 0.00 | 0.00 | 73 | 1015.0 |
| 20260507143105 | 57 | 228 | 0.9 | 3.5 | 0.00 | 0.00 | 0.00 | 70 | 1015.1 |
| 20260507141559 | 57 | 228 | 0.9 | 3.5 | 0.00 | 0.00 | 0.00 | 67 | 1015.2 |
| 20260507140110 | 58 | 228 | 0.0 | 0.0 | 0.00 | 0.00 | 0.00 | 65 | 1015.2 |
| 20260507134541 | 58 | 228 | 0.0 | 0.9 | 0.00 | 0.00 | 0.00 | 64 | 1015.2 |
| 20260507133041 | 59 | 228 | 0.0 | 2.6 | 0.00 | 0.00 | 0.00 | 60 | 1015.2 |
| 20260507131545 | 59 | 228 | 0.9 | 7.0 | 0.00 | 0.00 | 0.00 | 59 | 1015.2 |
| 20260507130039 | 59 | 232 | 0.9 | 3.5 | 0.00 | 0.00 | 0.00 | 59 | 1015.3 |
| 20260507124536 | 58 | 232 | 1.7 | 6.1 | 0.00 | 0.00 | 0.00 | 60 | 1015.3 |
| 20260507123035 | 58 | 234 | 0.9 | 7.8 | 0.00 | 0.00 | 0.00 | 59 | 1015.3 |
| 20260507121535 | 58 | 240 | 0.0 | 1.7 | 0.00 | 0.00 | 0.00 | 59 | 1015.3 |
| 20260507120034 | 59 | 242 | 0.0 | 2.6 | 0.00 | 0.00 | 0.00 | 58 | 1015.4 |
| 20260507114553 | 59 | 243 | 0.0 | 4.3 | 0.00 | 0.00 | 0.00 | 58 | 1015.5 |
| 20260507113051 | 59 | 243 | 0.0 | 4.3 | 0.00 | 0.00 | 0.00 | 58 | 1015.5 |
| 20260507111550 | 59 | 242 | 0.0 | 1.7 | 0.00 | 0.00 | 0.00 | 60 | 1015.4 |
| 20260507110052 | 59 | 246 | 0.0 | 0.9 | 0.00 | 0.00 | 0.00 | 63 | 1015.6 |
| 20260507104555 | 59 | 246 | 0.0 | 2.6 | 0.00 | 0.00 | 0.00 | 65 | 1015.6 |
| 20260507103050 | 59 | 244 | 0.0 | 2.6 | 0.00 | 0.00 | 0.00 | 67 | 1015.7 |
| 20260507101601 | 58 | 243 | 0.9 | 6.1 | 0.00 | 0.00 | 0.00 | 68 | 1015.7 |
| 20260507100044 | 57 | 31 | 0.0 | 2.6 | 0.00 | 0.00 | 0.00 | 70 | 1015.8 |
| 20260507094556 | 56 | 31 | 0.0 | 2.6 | 0.00 | 0.00 | 0.00 | 71 | 1015.8 |
| 20260507093042 | 55 | 31 | 0.0 | 3.5 | 0.00 | 0.00 | 0.00 | 71 | 1015.8 |
| 20260507091554 | 55 | 31 | 0.0 | 1.7 | 0.00 | 0.00 | 0.00 | 72 | 1015.8 |
| 20260507090043 | 54 | 30 | 0.0 | 1.7 | 0.00 | 0.00 | 0.00 | 74 | 1016.0 |
| 20260507084501 | 53 | 30 | 0.0 | 2.6 | 0.00 | 0.00 | 0.00 | 75 | 1016.0 |
| 20260507083105 | 52 | 30 | 0.0 | 0.9 | 0.00 | 0.00 | 0.00 | 76 | 1016.2 |
| 20260507081558 | 51 | 30 | 0.0 | 1.7 | 0.00 | 0.00 | 0.00 | 78 | 1016.1 |
| 20260507080051 | 50 | 30 | 0.0 | 1.7 | 0.00 | 0.00 | 0.00 | 79 | 1016.1 |
| 20260507074555 | 49 | 30 | 0.0 | 2.6 | 0.00 | 0.00 | 0.00 | 80 | 1016.0 |
| 20260507073101 | 48 | 30 | 0.0 | 0.9 | 0.00 | 0.00 | 0.00 | 81 | 1016.1 |
| 20260507071547 | 48 | 30 | 0.0 | 1.7 | 0.00 | 0.00 | 0.00 | 82 | 1016.0 |
| 20260507070114 | 47 | 30 | 0.0 | 0.9 | 0.00 | 0.00 | 0.00 | 82 | 1015.8 |
| 20260507064547 | 47 | 30 | 0.0 | 1.7 | 0.00 | 0.00 | 0.00 | 83 | 1015.7 |
| 20260507063040 | 47 | 30 | 0.0 | 1.7 | 0.00 | 0.00 | 0.00 | 83 | 1015.8 |
| 20260507061539 | 47 | 30 | 0.0 | 0.9 | 0.00 | 0.00 | 0.00 | 83 | 1015.8 |
| 20260507060037 | 46 | 30 | 0.0 | 0.9 | 0.00 | 0.00 | 0.00 | 83 | 1015.7 |
| 20260507054604 | 46 | 30 | 0.0 | 1.7 | 0.00 | 0.00 | 0.00 | 83 | 1015.5 |
| 20260507053053 | 46 | 30 | 0.0 | 0.9 | 0.00 | 0.00 | 0.00 | 83 | 1015.5 |
| 20260507051548 | 46 | 30 | 0.0 | 1.7 | 0.00 | 0.00 | 0.00 | 83 | 1015.5 |
| 20260507050046 | 46 | 30 | 0.0 | 1.7 | 0.00 | 0.00 | 0.00 | 83 | 1015.5 |
| 20260507044546 | 46 | 30 | 0.0 | 0.9 | 0.00 | 0.00 | 0.00 | 83 | 1015.4 |
| 20260507043041 | 46 | 30 | 0.0 | 1.7 | 0.00 | 0.00 | 0.00 | 82 | 1015.3 |
| 20260507041538 | 46 | 30 | 0.0 | 5.2 | 0.00 | 0.00 | 0.00 | 82 | 1015.3 |
| 20260507040036 | 46 | 30 | 0.0 | 1.7 | 0.00 | 0.00 | 0.00 | 81 | 1015.4 |
| 20260507034545 | 46 | 30 | 0.0 | 1.7 | 0.00 | 0.00 | 0.00 | 81 | 1015.4 |
| 20260507033037 | 47 | 30 | 0.0 | 4.3 | 0.00 | 0.00 | 0.00 | 80 | 1015.3 |
| 20260507031534 | 47 | 30 | 0.0 | 1.7 | 0.00 | 0.00 | 0.00 | 80 | 1015.4 |
| 20260507030038 | 47 | 30 | 0.0 | 4.3 | 0.00 | 0.00 | 0.00 | 79 | 1015.4 |
| 20260507024549 | 47 | 30 | 0.0 | 2.6 | 0.00 | 0.00 | 0.00 | 79 | 1015.3 |
| 20260507023047 | 47 | 30 | 0.0 | 0.9 | 0.00 | 0.00 | 0.00 | 79 | 1015.3 |
| 20260507021557 | 47 | 30 | 0.0 | 2.6 | 0.00 | 0.00 | 0.00 | 78 | 1015.3 |
| 20260507020052 | 47 | 30 | 0.9 | 2.6 | 0.00 | 0.00 | 0.00 | 78 | 1015.3 |
| 20260507014557 | 48 | 30 | 0.0 | 1.7 | 0.00 | 0.00 | 0.00 | 78 | 1015.2 |
| 20260507013040 | 48 | 30 | 0.0 | 2.6 | 0.00 | 0.00 | 0.00 | 78 | 1015.3 |
| 20260507011540 | 48 | 30 | 0.0 | 1.7 | 0.00 | 0.00 | 0.00 | 77 | 1015.3 |
| 20260507010039 | 48 | 30 | 0.0 | 1.7 | 0.00 | 0.00 | 0.00 | 77 | 1015.3 |
| 20260507004541 | 48 | 30 | 0.9 | 2.6 | 0.00 | 0.00 | 0.00 | 76 | 1015.2 |
| 20260507003036 | 48 | 31 | 0.0 | 1.7 | 0.00 | 0.00 | 0.00 | 75 | 1015.3 |
| 20260507001535 | 48 | 31 | 0.0 | 2.6 | 0.00 | 0.00 | 0.00 | 74 | 1015.3 |
| 20260507000033 | 49 | 31 | 0.0 | 1.7 | 0.00 | 0.00 | 0.00 | 73 | 1015.5 |
| 20260506234555 | 49 | 31 | 0.0 | 1.7 | 0.00 | 0.00 | 0.00 | 73 | 1015.5 |
| 20260506233056 | 49 | 31 | 0.0 | 2.6 | 0.00 | 0.00 | 0.00 | 72 | 1015.5 |
| 20260506231549 | 49 | 31 | 0.9 | 7.0 | 0.00 | 0.00 | 0.00 | 71 | 1015.4 |
| 20260506230047 | 49 | 30 | 0.9 | 2.6 | 0.00 | 0.00 | 0.00 | 70 | 1015.4 |
| 20260506224545 | 49 | 30 | 0.9 | 7.0 | 0.00 | 0.00 | 0.00 | 68 | 1015.4 |
| 20260506223043 | 50 | 30 | 0.9 | 4.3 | 0.00 | 0.00 | 0.00 | 67 | 1015.3 |
| 20260506221544 | 50 | 30 | 0.0 | 7.0 | 0.00 | 0.00 | 0.00 | 65 | 1015.2 |
| 20260506220042 | 51 | 31 | 0.0 | 5.2 | 0.00 | 0.00 | 0.00 | 63 | 1015.1 |
| 20260506214538 | 51 | 30 | 0.0 | 1.7 | 0.00 | 0.00 | 0.00 | 62 | 1015.1 |
| 20260506213036 | 52 | 30 | 0.9 | 4.3 | 0.00 | 0.00 | 0.00 | 61 | 1015.0 |
| 20260506211535 | 52 | 30 | 0.0 | 2.6 | 0.00 | 0.00 | 0.00 | 59 | 1014.9 |
| 20260506210034 | 53 | 30 | 0.0 | 0.9 | 0.00 | 0.00 | 0.00 | 58 | 1014.8 |
| 20260506204546 | 53 | 30 | 0.0 | 2.6 | 0.00 | 0.00 | 0.00 | 57 | 1014.7 |
| 20260506203051 | 53 | 30 | 0.9 | 4.3 | 0.00 | 0.00 | 0.00 | 56 | 1014.7 |
| 20260506201606 | 54 | 30 | 0.9 | 4.3 | 0.00 | 0.00 | 0.00 | 54 | 1014.5 |
| 20260506200045 | 54 | 30 | 1.7 | 4.3 | 0.00 | 0.00 | 0.00 | 54 | 1014.4 |
| 20260506194548 | 55 | 30 | 0.9 | 4.3 | 0.00 | 0.00 | 0.00 | 52 | 1014.1 |
| 20260506193044 | 55 | 30 | 0.0 | 7.0 | 0.00 | 0.00 | 0.00 | 52 | 1014.2 |
| 20260506191542 | 55 | 30 | 0.9 | 5.2 | 0.00 | 0.00 | 0.00 | 52 | 1014.2 |
| 20260506190037 | 55 | 30 | 2.6 | 8.7 | 0.00 | 0.00 | 0.00 | 51 | 1014.1 |
| 20260506184554 | 56 | 30 | 4.3 | 10.4 | 0.00 | 0.00 | 0.00 | 51 | 1014.0 |
| 20260506183050 | 56 | 34 | 6.1 | 10.4 | 0.00 | 0.00 | 0.00 | 50 | 1013.9 |
| 20260506181551 | 56 | 38 | 3.5 | 9.6 | 0.00 | 0.00 | 0.00 | 50 | 1013.9 |
| 20260506180049 | 57 | 29 | 6.1 | 9.6 | 0.00 | 0.00 | 0.00 | 48 | 1013.7 |
| 20260506174545 | 59 | 30 | 1.7 | 11.3 | 0.00 | 0.00 | 0.00 | 48 | 1013.6 |
| 20260506173100 | 59 | 32 | 1.7 | 13.0 | 0.00 | 0.00 | 0.00 | 46 | 1013.5 |
| 20260506171553 | 61 | 25 | 0.9 | 9.6 | 0.00 | 0.00 | 0.00 | 44 | 1013.4 |
| 20260506170042 | 62 | 35 | 1.7 | 7.8 | 0.00 | 0.00 | 0.00 | 44 | 1013.4 |
| 20260506164540 | 59 | 34 | 3.5 | 10.4 | 0.00 | 0.00 | 0.00 | 45 | 1013.5 |
| 20260506163052 | 58 | 32 | 0.0 | 7.8 | 0.00 | 0.00 | 0.00 | 49 | 1013.4 |
| 20260506161542 | 59 | 30 | 4.3 | 11.3 | 0.00 | 0.00 | 0.00 | 47 | 1013.5 |
| 20260506160035 | 58 | 34 | 0.9 | 8.7 | 0.00 | 0.00 | 0.00 | 51 | 1013.6 |
| 20260506154555 | 57 | 40 | 3.5 | 11.3 | 0.00 | 0.00 | 0.00 | 50 | 1013.6 |
| 20260506153048 | 56 | 26 | 1.7 | 8.7 | 0.00 | 0.00 | 0.00 | 52 | 1013.6 |